Voltar ao catálogo

ABS 7

KOREASAT 3

AtivoComunicaçõesGEO
NORAD 25894·PAYLOAD·🇰🇷 South Korea

Lançado Sep 4, 1999 de Guiana Space Centre

Loading…

TLE

AtualizadoSource: Space-Track

Época: Sep 14, 2026, 06:55 UTC

1 25894U 99046A   26257.28868437 -.00000116  00000-0  00000-0 0  9993
2 25894   6.6976  69.6561 0003211 139.5459 241.2580  0.99977787 97977

Acompanhe ABS 7 em tempo real com AllMySat

Download on the App Store